TimeCST,TemperatureF,Dew PointF,Humidity,Sea Level PressureIn,VisibilityMPH,Wind Direction,Wind SpeedMPH,Gust SpeedMPH,PrecipitationIn,Events,Conditions,WindDirDegrees,DateUTC
12:54 AM,24.1,12.0,60,30.34,10.0,NNW,8.1,-,N/A,,Overcast,340,2013-12-06 06:54:00
1:54 AM,24.1,10.9,57,30.32,10.0,North,9.2,-,N/A,,Overcast,360,2013-12-06 07:54:00
2:54 AM,23.0,10.9,60,30.35,10.0,North,10.4,-,N/A,,Overcast,350,2013-12-06 08:54:00
3:54 AM,23.0,12.0,63,30.34,10.0,North,11.5,-,N/A,,Overcast,350,2013-12-06 09:54:00
4:54 AM,21.9,10.9,63,30.35,10.0,North,12.7,-,N/A,,Overcast,350,2013-12-06 10:54:00
5:54 AM,21.9,10.9,63,30.38,10.0,North,11.5,-,N/A,,Overcast,350,2013-12-06 11:54:00
6:54 AM,21.0,10.9,65,30.40,10.0,North,8.1,-,N/A,,Overcast,350,2013-12-06 12:54:00
7:54 AM,21.0,10.9,65,30.39,10.0,North,10.4,-,N/A,,Overcast,350,2013-12-06 13:54:00
8:54 AM,21.0,10.9,65,30.43,10.0,NNW,11.5,-,N/A,,Overcast,340,2013-12-06 14:54:00
9:54 AM,21.0,10.0,63,30.45,10.0,NNW,10.4,-,N/A,,Overcast,340,2013-12-06 15:54:00
10:54 AM,21.0,10.0,63,30.44,10.0,NNW,8.1,-,N/A,,Overcast,340,2013-12-06 16:54:00
11:54 AM,21.0,9.0,60,30.43,10.0,North,11.5,-,N/A,,Overcast,350,2013-12-06 17:54:00
12:54 PM,21.0,9.0,60,30.43,5.0,North,10.4,-,0.00,Snow,Light Snow,350,2013-12-06 18:54:00
1:54 PM,19.9,9.0,62,30.44,7.0,NNW,12.7,-,0.00,,Overcast,330,2013-12-06 19:54:00
2:54 PM,19.9,6.1,55,30.45,10.0,North,10.4,-,0.00,,Overcast,360,2013-12-06 20:54:00
3:54 PM,19.9,6.1,55,30.48,10.0,NNW,9.2,-,N/A,,Overcast,340,2013-12-06 21:54:00
4:54 PM,19.9,5.0,52,30.49,10.0,North,9.2,-,N/A,,Overcast,350,2013-12-06 22:54:00
5:54 PM,19.0,5.0,54,30.52,10.0,NNW,10.4,-,N/A,,Overcast,330,2013-12-06 23:54:00
6:54 PM,19.0,5.0,54,30.54,10.0,NNW,8.1,-,N/A,,Overcast,330,2013-12-07 00:54:00
7:54 PM,19.0,5.0,54,30.56,10.0,NW,9.2,-,N/A,,Overcast,320,2013-12-07 01:54:00
8:54 PM,19.0,3.9,52,30.59,10.0,North,10.4,-,N/A,,Overcast,360,2013-12-07 02:54:00
9:54 PM,17.1,3.9,56,30.61,10.0,North,6.9,-,N/A,,Overcast,350,2013-12-07 03:54:00
10:54 PM,16.0,3.0,57,30.63,10.0,NNW,6.9,-,N/A,,Clear,330,2013-12-07 04:54:00
11:54 PM,15.1,3.0,59,30.65,10.0,NNW,6.9,-,N/A,,Clear,340,2013-12-07 05:54:00